Orbital Elements at Epoch 2459200.5 (2020-Dec-17.0) TDB
Reference: JPL 7 (heliocentric ecliptic J2000)
Element | Value | Uncertainty (1-sigma) | Units |
e | .1483282466784924 | 6.6423e-08 | |
a | 3.089151343997297 | 3.9969e-08 | au |
q | 2.630942941417669 | 1.8738e-07 | au |
i | 6.726824752311941 | 7.713e-06 | deg |
node | 72.84667814264837 | 5.1066e-05 | deg |
peri | 71.19710992498349 | 5.838e-05 | deg |
M | 161.8850543221199 | 2.957e-05 | deg |
tp | 2458308.712336708040 (2018-Jul-09.21233671) | 0.00015736 | TDB |
period | 1983.157494862318 5.43 | 3.8489e-05 1.054e-07 | d yr |
n | .1815286990229655 | 3.5231e-09 | deg/d |
Q | 3.547359746576924 | 4.5898e-08 | au |
|
| | Orbit Determination Parameters
Additional Information
|